DW4236 Weather Reports


time (UTC)temp
C
wind
direction
speed
KPH
gust
KPH
rain 1hr
cm
rain 24hr
cm
rain mn
cm
humidity
%
barometer
mb
20260504221104 22 302 8.0 22.5 0.00 0.00 0.00 37 1008.7
20260504220104 22 274 6.4 19.3 0.00 0.00 0.00 37 1008.8
20260504215603 22 264 4.8 25.7 0.00 0.00 0.00 37 1008.8
20260504215105 22 292 4.8 24.1 0.00 0.00 0.00 36 1008.8
20260504214603 22 274 3.2 27.4 0.00 0.00 0.00 37 1008.9
20260504213603 22 290 11.3 32.2 0.00 0.00 0.00 36 1009.1
20260504213104 22 277 8.0 14.5 0.00 0.00 0.00 37 1009.1
20260504212604 22 268 8.0 19.3 0.00 0.00 0.00 35 1009.2
20260504212103 23 242 11.3 24.1 0.00 0.00 0.00 36 1009.1
20260504211604 23 276 9.7 19.3 0.00 0.00 0.00 36 1009.1
20260504210603 22 288 14.5 27.4 0.00 0.00 0.00 35 1009.2
20260504205604 23 268 9.7 29.0 0.00 0.00 0.00 36 1009.3
20260504205104 23 286 8.0 24.1 0.00 0.00 0.00 36 1009.3
20260504204604 23 235 4.8 19.3 0.00 0.00 0.00 37 1009.2
20260504204103 23 304 16.1 29.0 0.00 0.00 0.00 34 1009.3
20260504203605 23 283 9.7 19.3 0.00 0.00 0.00 37 1009.2
20260504202604 23 298 11.3 22.5 0.00 0.00 0.00 34 1009.3
20260504202104 23 299 16.1 25.7 0.00 0.00 0.00 33 1009.3
20260504201104 23 269 9.7 19.3 0.00 0.00 0.00 35 1009.3
20260504200604 22 299 11.3 27.4 0.00 0.00 0.00 35 1009.4
20260504200103 23 277 14.5 24.1 0.00 0.00 0.00 35 1009.5
20260504195603 23 303 6.4 24.1 0.00 0.00 0.00 34 1009.6
20260504195103 23 272 6.4 24.1 0.00 0.00 0.00 37 1009.7
20260504194604 23 258 11.3 22.5 0.00 0.00 0.00 36 1009.8
20260504194105 22 293 8.0 25.7 0.00 0.00 0.00 35 1009.8
20260504193604 23 281 14.5 25.7 0.00 0.00 0.00 35 1010.0
20260504193104 22 293 12.9 20.9 0.00 0.00 0.00 34 1009.9
20260504191605 22 282 12.9 22.5 0.00 0.00 0.00 34 1009.9
20260504191105 22 276 6.4 20.9 0.00 0.00 0.00 36 1009.9
20260504190604 22 289 9.7 25.7 0.00 0.00 0.00 36 1010.1
20260504185605 22 293 11.3 32.2 0.00 0.00 0.00 35 1010.2
20260504185104 22 307 9.7 35.4 0.00 0.00 0.00 35 1010.1
20260504184603 22 267 14.5 24.1 0.00 0.00 0.00 36 1010.2
20260504184104 22 245 9.7 27.4 0.00 0.00 0.00 37 1010.2
20260504182604 22 264 12.9 22.5 0.00 0.00 0.00 37 1010.4
20260504181604 22 315 11.3 22.5 0.00 0.00 0.00 37 1010.5
20260504181103 21 269 9.7 25.7 0.00 0.00 0.00 38 1010.7
20260504180103 21 271 9.7 19.3 0.00 0.00 0.00 40 1010.8
20260504175605 21 271 9.7 27.4 0.00 0.00 0.00 38 1010.9
20260504175103 21 280 14.5 35.4 0.00 0.00 0.00 37 1010.9
20260504174605 21 302 9.7 22.5 0.00 0.00 0.00 36 1011.0
20260504174104 21 312 11.3 25.7 0.00 0.00 0.00 39 1011.1
20260504173604 21 295 11.3 24.1 0.00 0.00 0.00 37 1011.2
20260504173104 21 306 9.7 19.3 0.00 0.00 0.00 37 1011.3
20260504172604 21 291 12.9 25.7 0.00 0.00 0.00 37 1011.3
20260504172103 21 285 8.0 20.9 0.00 0.00 0.00 40 1011.3
20260504171604 20 263 12.9 29.0 0.00 0.00 0.00 39 1011.4
20260504171104 20 251 12.9 29.0 0.00 0.00 0.00 39 1011.4
20260504170604 20 242 11.3 29.0 0.00 0.00 0.00 40 1011.4
20260504160104 20 274 8.0 24.1 0.00 0.00 0.00 39 1012.0
20260504151103 19 317 9.7 24.1 0.00 0.00 0.00 39 1012.6
20260504150605 18 330 9.7 22.5 0.00 0.00 0.00 41 1012.7
20260504150105 18 280 14.5 27.4 0.00 0.00 0.00 39 1012.8
20260504141105 17 299 12.9 32.2 0.00 0.00 0.00 39 1013.5
20260504140604 17 302 11.3 32.2 0.00 0.00 0.00 41 1013.5
20260504140107 17 299 12.9 27.4 0.00 0.00 0.00 40 1013.4
20260504130605 16 285 16.1 32.2 0.00 0.00 0.00 42 1013.7
20260504130105 15 316 8.0 27.4 0.00 0.00 0.00 44 1013.9
20260504120105 13 283 4.8 19.3 0.00 0.00 0.00 51 1014.1
20260504110605 10 299 6.4 14.5 0.00 0.00 0.00 58 1014.1
20260504110106 10 298 3.2 4.8 0.00 0.00 0.00 59 1014.2
20260504100604 9 306 4.8 12.9 0.00 0.00 0.00 58 1014.0
20260504100105 9 294 4.8 12.9 0.00 0.00 0.00 58 1013.9
20260504090105 9 294 8.0 16.1 0.00 0.00 0.00 59 1013.9
20260504081605 7 305 0.0 0.0 0.00 0.00 0.00 70 1013.7
20260504080605 5 283 0.0 0.0 0.00 0.00 0.00 77 1013.8
20260504080105 5 293 0.0 0.0 0.00 0.00 0.00 78 1013.8
20260504070106 6 307 0.0 0.0 0.00 0.00 0.00 70 1013.8
20260504060105 5 284 0.0 0.0 0.00 0.00 0.00 78 1013.5
20260504050604 5 337 0.0 0.0 0.00 0.00 0.00 76 1013.5
20260504045605 5 337 0.0 0.0 0.00 0.00 0.00 75 1013.5
20260504045105 5 337 0.0 0.0 0.00 0.00 0.00 74 1013.5
20260504044605 5 337 0.0 0.0 0.00 0.00 0.00 73 1013.5
20260504044105 6 337 0.0 0.0 0.00 0.00 0.00 73 1013.4
20260504043604 6 337 0.0 0.0 0.00 0.00 0.00 73 1013.3
20260504042604 6 337 0.0 0.0 0.00 0.00 0.00 73 1013.2
20260504042104 6 337 0.0 0.0 0.00 0.00 0.00 72 1013.2
20260504041606 6 337 0.0 0.0 0.00 0.00 0.00 72 1013.1
20260504041106 6 337 0.0 0.0 0.00 0.00 0.00 72 1013.0
20260504040605 6 337 0.0 0.0 0.00 0.00 0.00 72 1013.1
20260504040105 6 337 0.0 0.0 0.00 0.00 0.00 72 1013.0
20260504035605 6 337 0.0 0.0 0.00 0.00 0.00 72 1013.0
20260504035105 6 337 0.0 0.0 0.00 0.00 0.00 72 1013.0
20260504034605 6 337 0.0 0.0 0.00 0.00 0.00 72 1013.0
20260504034105 6 337 0.0 0.0 0.00 0.00 0.00 72 1012.9
20260504033106 6 337 0.0 0.0 0.00 0.00 0.00 72 1012.9
20260504032605 6 337 0.0 0.0 0.00 0.00 0.00 71 1013.0
20260504031605 6 337 0.0 0.0 0.00 0.00 0.00 71 1013.1
20260504025604 6 337 0.0 0.0 0.00 0.00 0.00 70 1013.0
20260504025105 6 337 0.0 0.0 0.00 0.00 0.00 69 1013.0
20260504024606 7 337 0.0 0.0 0.00 0.00 0.00 69 1013.0
20260504024106 7 337 0.0 0.0 0.00 0.00 0.00 68 1013.1
20260504023605 7 337 0.0 0.0 0.00 0.00 0.00 68 1013.1
20260504023105 7 337 0.0 0.0 0.00 0.00 0.00 67 1013.1
20260504022605 7 337 0.0 0.0 0.00 0.00 0.00 67 1013.0
20260504022105 7 337 0.0 0.0 0.00 0.00 0.00 66 1013.1
20260504021605 7 337 0.0 0.0 0.00 0.00 0.00 65 1013.0
20260504021104 7 337 0.0 0.0 0.00 0.00 0.00 64 1013.0
20260504020606 8 337 0.0 0.0 0.00 0.00 0.00 63 1013.0
20260504020106 8 337 0.0 0.0 0.00 0.00 0.00 63 1013.1
20260504015605 8 337 0.0 0.0 0.00 0.00 0.00 62 1013.1
20260504015104 8 337 0.0 0.0 0.00 0.00 0.00 60 1013.0
20260504014605 8 337 0.0 0.0 0.00 0.00 0.00 59 1013.0
20260504014104 9 337 0.0 0.0 0.00 0.00 0.00 57 1013.0
20260504013604 9 337 0.0 0.0 0.00 0.00 0.00 57 1013.0
20260504013104 10 337 0.0 0.0 0.00 0.00 0.00 56 1012.9
20260504012106 10 337 0.0 0.0 0.00 0.00 0.00 54 1012.9
20260504011605 10 337 0.0 0.0 0.00 0.00 0.00 52 1012.8
20260504011105 10 337 0.0 0.0 0.00 0.00 0.00 51 1012.8
20260504010105 11 337 0.0 0.0 0.00 0.00 0.00 48 1012.7
20260504005105 12 337 0.0 0.0 0.00 0.00 0.00 46 1012.6
20260504004604 12 337 1.6 4.8 0.00 0.00 0.00 44 1012.6
20260504004105 12 355 1.6 3.2 0.00 0.00 0.00 44 1012.5
20260504003606 12 355 1.6 3.2 0.00 0.00 0.00 42 1012.5
20260504003105 12 339 1.6 4.8 0.00 0.00 0.00 42 1012.4
20260504002606 12 308 3.2 11.3 0.00 0.00 0.00 42 1012.3
20260504002105 12 354 4.8 8.0 0.00 0.00 0.00 41 1012.2
20260504001605 13 309 1.6 4.8 0.00 0.00 0.00 42 1012.1
20260504001105 13 349 0.0 3.2 0.00 0.00 0.00 40 1012.1
20260504000605 13 350 3.2 9.7 0.00 0.00 0.00 39 1012.0
20260504000105 13 356 1.6 4.8 0.00 0.00 0.00 39 1011.9
20260503235605 13 331 4.8 8.0 0.00 0.00 0.00 38 1011.9
20260503234104 13 309 3.2 9.7 0.00 0.00 0.00 38 1011.6
20260503233605 13 355 1.6 3.2 0.00 0.00 0.00 38 1011.4
20260503233105 13 354 3.2 4.8 0.00 0.00 0.00 38 1011.5
20260503232605 13 350 3.2 4.8 0.00 0.00 0.00 38 1011.4
20260503231604 14 3 3.2 11.3 0.00 0.00 0.00 37 1011.3
20260503231105 14 351 1.6 11.3 0.00 0.00 0.00 39 1011.2
20260503230605 14 348 3.2 9.7 0.00 0.00 0.00 37 1011.2
20260503230104 14 323 1.6 9.7 0.00 0.00 0.00 37 1011.2
20260503225604 14 45 4.8 11.3 0.00 0.00 0.00 35 1011.1
20260503225104 14 20 3.2 4.8 0.00 0.00 0.00 35 1011.1
20260503224106 14 8 8.0 16.1 0.00 0.00 0.00 35 1011.1
20260503223604 14 341 8.0 16.1 0.00 0.00 0.00 34 1011.1
20260503223104 14 0 8.0 24.1 0.00 0.00 0.00 34 1011.1
20260503222605 14 352 11.3 19.3 0.00 0.00 0.00 33 1011.1
20260503222104 15 328 3.2 16.1 0.00 0.00 0.00 33 1011.0
20260503221604 15 332 3.2 16.1 0.00 0.00 0.00 33 1010.9